OPTICUBE 04

Last updated on Wed Oct 29 2025 00:03:53 GMT+0000 (Coordinated Universal Time)

1 41851U 16067D 25301.52573842 .00003537 00000+0 23290-3 0 9992 2 41851 98.0871 136.6236 0016095 175.5022 184.6352 15.08145670490238
UTC large
Height (km)
Speed (km/s)
/
Latitude / Longitude
Inclination (degrees)
Orbital Period (minutes)
Azimuth
Elevation
Range (km)
Doppler Factor

Next 0 passes for location: London (51.5072 / 0.1276)

Sorry there are no passes over London.